FW6909 Weather Reports


Display with metric or nautical units.
time (UTC)temp
F
wind
direction
speed
MPH
gust
MPH
rain 1hr
in
rain 24hr
in
rain mn
in
humidity
%
barometer
mb
20260505181033 50 75 6.0 16.0 0.00 0.00 0.00 61 1016.4
20260505180533 50 60 7.0 16.0 0.00 0.00 0.00 61 1016.5
20260505180039 50 89 6.0 14.0 0.00 0.00 0.00 61 1016.4
20260505175532 50 96 6.0 14.0 0.00 0.00 0.00 62 1016.4
20260505175032 49 50 7.0 14.0 0.00 0.00 0.00 62 1016.3
20260505174537 50 92 7.0 14.0 0.00 0.00 0.00 62 1016.4
20260505174032 50 46 8.0 17.0 0.00 0.00 0.00 61 1016.4
20260505173534 50 131 6.0 17.0 0.00 0.00 0.00 62 1016.5
20260505173043 51 28 5.0 12.0 0.00 0.00 0.00 62 1016.3
20260505172531 51 68 6.0 11.0 0.00 0.00 0.00 62 1016.4
20260505172032 51 84 5.0 11.0 0.00 0.00 0.00 62 1016.4
20260505171543 51 74 6.0 17.0 0.00 0.00 0.00 62 1016.4
20260505171034 51 68 9.0 17.0 0.00 0.00 0.00 63 1016.3
20260505170532 51 85 7.0 15.0 0.00 0.00 0.00 63 1016.3
20260505170042 51 79 6.0 13.0 0.00 0.00 0.00 63 1016.3
20260505165532 51 70 6.0 13.0 0.00 0.00 0.00 62 1016.2
20260505165032 52 65 7.0 13.0 0.00 0.00 0.00 61 1016.2
20260505164556 52 88 6.0 13.0 0.00 0.00 0.00 60 1016.2
20260505164032 52 94 7.0 13.0 0.00 0.00 0.00 60 1016.1
20260505163532 52 90 8.0 13.0 0.00 0.00 0.00 60 1016.1
20260505163038 52 46 7.0 12.0 0.00 0.00 0.00 61 1016.0
20260505162531 51 123 5.0 12.0 0.00 0.00 0.00 63 1016.1
20260505162032 51 94 6.0 13.0 0.00 0.00 0.00 62 1016.1
20260505161537 51 64 6.0 13.0 0.00 0.00 0.00 62 1016.0
20260505161033 52 84 4.0 12.0 0.00 0.00 0.00 63 1016.2
20260505160533 51 79 7.0 13.0 0.00 0.00 0.00 62 1016.2
20260505153108 52 83 7.0 15.0 0.00 0.00 0.00 61 1015.9
20260505152531 52 77 6.0 11.0 0.00 0.00 0.00 61 1016.0
20260505152032 52 81 4.0 13.0 0.00 0.00 0.00 60 1016.1
20260505151545 52 75 8.0 13.0 0.00 0.00 0.00 60 1016.1
20260505151032 52 122 7.0 14.0 0.00 0.00 0.00 60 1016.0
20260505150532 52 66 8.0 14.0 0.00 0.00 0.00 60 1016.0
20260505140536 53 74 7.0 15.0 0.00 0.00 0.00 60 1015.7
20260505125031 55 82 2.0 7.0 0.00 0.00 0.00 44 1015.3
20260505124540 55 146 1.0 5.0 0.00 0.00 0.00 45 1015.3
20260505124031 55 264 1.0 11.0 0.00 0.00 0.00 45 1015.3
20260505123535 55 96 5.0 11.0 0.00 0.00 0.00 45 1015.5
20260505123045 55 75 3.0 9.0 0.00 0.00 0.00 47 1015.3
20260505122531 55 115 5.0 9.0 0.00 0.00 0.00 47 1015.3
20260505122034 55 105 4.0 9.0 0.00 0.00 0.00 45 1015.5
20260505121537 55 296 0.0 9.0 0.00 0.00 0.00 46 1015.4
20260505121032 55 336 2.0 12.0 0.00 0.00 0.00 46 1015.6
20260505120531 55 40 7.0 12.0 0.00 0.00 0.00 46 1015.7
20260505120041 55 91 5.0 10.0 0.00 0.00 0.00 47 1015.6
20260505115531 55 108 4.0 10.0 0.00 0.00 0.00 48 1015.5
20260505115035 55 100 5.0 9.0 0.00 0.00 0.00 49 1015.6
20260505114545 55 96 5.0 8.0 0.00 0.00 0.00 50 1015.5
20260505114030 54 79 5.0 8.0 0.00 0.00 0.00 50 1015.6
20260505113531 54 108 3.0 8.0 0.00 0.00 0.00 48 1015.6
20260505113041 54 93 3.0 7.0 0.00 0.00 0.00 48 1015.5
20260505112531 54 69 2.0 5.0 0.00 0.00 0.00 50 1015.7
20260505112031 54 340 1.0 5.0 0.00 0.00 0.00 50 1015.6
20260505111553 54 67 1.0 6.0 0.00 0.00 0.00 51 1015.6
20260505111032 53 19 0.0 6.0 0.00 0.00 0.00 51 1015.7
20260505110532 52 75 2.0 6.0 0.00 0.00 0.00 51 1015.7
20260505102031 51 353 1.0 5.0 0.00 0.00 0.00 59 1015.8
20260505101538 51 294 1.0 5.0 0.00 0.00 0.00 59 1015.9
20260505101032 51 221 2.0 5.0 0.00 0.00 0.00 60 1015.9
20260505100535 51 351 0.0 6.0 0.00 0.00 0.00 61 1015.8
20260505100042 51 356 2.0 6.0 0.00 0.00 0.00 60 1015.7
20260505095533 51 37 1.0 5.0 0.00 0.00 0.00 61 1015.7
20260505095031 51 354 2.0 4.0 0.00 0.00 0.00 62 1015.7
20260505094537 51 36 1.0 4.0 0.00 0.00 0.00 62 1015.7
20260505094031 51 246 1.0 7.0 0.00 0.00 0.00 64 1015.6
20260505093531 51 302 3.0 7.0 0.00 0.00 0.00 61 1015.6
20260505093037 51 347 1.0 6.0 0.00 0.00 0.00 62 1015.6
20260505092532 51 324 2.0 8.0 0.00 0.00 0.00 62 1015.6
20260505092032 51 274 1.0 8.0 0.00 0.00 0.00 61 1015.5
20260505091550 51 340 3.0 8.0 0.00 0.00 0.00 62 1015.6
20260505091032 51 71 2.0 6.0 0.00 0.00 0.00 63 1015.5
20260505090531 51 293 2.0 6.0 0.00 0.00 0.00 64 1015.5
20260505090051 51 351 2.0 6.0 0.00 0.00 0.00 65 1015.5
20260505085534 51 11 2.0 5.0 0.00 0.00 0.00 66 1015.5
20260505085031 51 328 1.0 5.0 0.00 0.00 0.00 68 1015.5
20260505084538 51 272 2.0 4.0 0.00 0.00 0.00 68 1015.3
20260505084030 50 260 1.0 6.0 0.00 0.00 0.00 69 1015.3
20260505083531 50 323 2.0 6.0 0.00 0.00 0.00 69 1015.3
20260505083048 50 347 3.0 6.0 0.00 0.00 0.00 69 1015.5
20260505082530 50 342 2.0 6.0 0.00 0.00 0.00 70 1015.3
20260505082032 50 299 3.0 6.0 0.00 0.00 0.00 70 1015.4
20260505081557 50 332 1.0 7.0 0.00 0.00 0.00 72 1015.4
20260505081032 49 339 2.0 7.0 0.00 0.00 0.00 73 1015.3
20260505080534 49 283 1.0 7.0 0.00 0.00 0.00 73 1015.3
20260505080046 49 248 3.0 7.0 0.00 0.00 0.00 73 1015.3
20260505075531 49 331 3.0 6.0 0.00 0.00 0.00 74 1015.3
20260505075031 49 293 2.0 5.0 0.00 0.00 0.00 75 1015.3
20260505074602 48 276 2.0 5.0 0.00 0.00 0.00 76 1015.0
20260505074031 48 304 2.0 5.0 0.00 0.00 0.00 76 1015.0
20260505073531 48 293 2.0 6.0 0.00 0.00 0.00 77 1015.0
20260505073038 48 272 2.0 7.0 0.00 0.00 0.00 77 1015.1
20260505072531 48 278 3.0 7.0 0.00 0.00 0.00 77 1015.1
20260505072031 48 297 2.0 7.0 0.00 0.00 0.00 78 1015.1
20260505071544 48 359 2.0 7.0 0.00 0.00 0.00 78 1015.1
20260505071031 48 271 2.0 7.0 0.00 0.00 0.00 78 1015.1
20260505070532 47 0 1.0 5.0 0.00 0.00 0.00 79 1015.0
20260505070036 47 5 1.0 7.0 0.00 0.00 0.00 79 1015.1
20260505065532 47 274 3.0 7.0 0.00 0.00 0.00 79 1015.2
20260505065031 47 281 1.0 3.0 0.00 0.00 0.00 80 1015.1
20260505064537 46 272 1.0 4.0 0.00 0.00 0.00 80 1015.1
20260505064032 46 268 1.0 4.0 0.00 0.00 0.00 80 1015.1
20260505063531 46 282 2.0 4.0 0.00 0.00 0.00 80 1015.1
20260505063044 46 290 1.0 4.0 0.00 0.00 0.00 80 1015.1
20260505062531 46 283 1.0 4.0 0.00 0.00 0.00 80 1015.2
20260505062035 46 248 1.0 4.0 0.00 0.00 0.00 81 1015.1
20260505061606 46 269 2.0 4.0 0.00 0.00 0.00 80 1015.2
20260505061031 46 272 2.0 6.0 0.00 0.00 0.00 81 1015.0
20260505060534 46 293 3.0 6.0 0.00 0.00 0.00 80 1015.0
20260505060052 46 278 3.0 6.0 0.00 0.00 0.00 80 1014.9
20260505055531 46 300 2.0 6.0 0.00 0.00 0.00 81 1015.0
20260505055033 46 276 2.0 5.0 0.00 0.00 0.00 81 1015.0
20260505054545 45 299 2.0 5.0 0.00 0.00 0.00 81 1014.9
20260505054034 45 240 3.0 5.0 0.00 0.00 0.00 81 1014.9
20260505053531 45 281 2.0 4.0 0.00 0.00 0.00 81 1014.8
20260505053045 45 275 1.0 4.0 0.00 0.00 0.00 81 1014.8
20260505052531 46 226 1.0 4.0 0.00 0.00 0.00 81 1014.7
20260505052030 46 290 1.0 4.0 0.00 0.00 0.00 81 1014.6
20260505051543 46 269 1.0 6.0 0.00 0.00 0.00 81 1014.7
20260505051032 46 270 2.0 6.0 0.00 0.00 0.00 81 1014.6
20260505050531 46 310 3.0 6.0 0.00 0.00 0.00 81 1014.7
20260505041535 46 232 1.0 5.0 0.00 0.00 0.00 82 1014.7
20260505041030 46 257 1.0 4.0 0.00 0.00 0.00 82 1014.6
20260505040530 46 264 1.0 4.0 0.00 0.00 0.00 82 1014.8
20260505040039 46 233 1.0 4.0 0.00 0.00 0.00 82 1014.7
20260505035531 46 287 0.0 3.0 0.00 0.00 0.00 82 1014.6
20260505035031 46 273 0.0 2.0 0.00 0.00 0.00 82 1014.9
20260505034544 46 271 0.0 2.0 0.00 0.00 0.00 82 1014.9
20260505034034 46 0 0.0 2.0 0.00 0.00 0.00 82 1014.9
20260505033533 46 260 0.0 2.0 0.00 0.00 0.00 82 1014.8
20260505033046 46 278 0.0 2.0 0.00 0.00 0.00 82 1014.7
20260505032531 46 263 0.0 3.0 0.00 0.00 0.00 82 1014.9
20260505032031 46 0 0.0 3.0 0.00 0.00 0.00 82 1014.8
20260505031536 46 271 0.0 1.0 0.00 0.00 0.00 82 1014.9
20260505031033 46 255 0.0 1.0 0.00 0.00 0.00 82 1014.8
20260505030530 46 0 0.0 1.0 0.00 0.00 0.00 82 1014.7
20260505030036 46 0 0.0 1.0 0.00 0.00 0.00 82 1014.9
20260505025534 46 0 0.0 1.0 0.00 0.00 0.00 82 1014.9
20260505025030 46 0 0.0 1.0 0.00 0.00 0.00 81 1015.0
20260505024557 46 0 0.0 1.0 0.00 0.00 0.00 81 1014.9
20260505024030 47 0 0.0 1.0 0.00 0.00 0.00 81 1014.8
20260505023531 47 221 0.0 1.0 0.00 0.00 0.00 81 1014.9
20260505023042 47 0 0.0 1.0 0.00 0.00 0.00 81 1015.0
20260505022531 47 0 0.0 4.0 0.00 0.00 0.00 81 1014.9
20260505022031 47 300 1.0 4.0 0.00 0.00 0.00 81 1015.0
20260505021547 47 256 0.0 4.0 0.00 0.00 0.00 81 1014.9
20260505021030 47 293 2.0 8.0 0.00 0.00 0.00 81 1015.0
20260505020530 47 299 2.0 8.0 0.00 0.00 0.00 81 1015.1
20260505020044 47 248 2.0 5.0 0.00 0.00 0.00 81 1015.2
20260505015531 47 275 2.0 5.0 0.00 0.00 0.00 81 1015.2
20260505015031 47 280 2.0 5.0 0.00 0.00 0.00 81 1015.1
20260505014545 47 275 2.0 5.0 0.00 0.00 0.00 81 1015.1
20260505014030 47 274 1.0 4.0 0.00 0.00 0.00 81 1015.1
20260505013530 47 0 0.0 2.0 0.00 0.00 0.00 81 1015.1
20260505013042 47 226 0.0 0.0 0.00 0.00 0.00 81 1015.1
20260505012529 47 0 0.0 1.0 0.00 0.00 0.00 81 1015.2
20260505012031 47 0 0.0 1.0 0.00 0.00 0.00 81 1015.2
20260505011550 47 0 0.0 2.0 0.00 0.00 0.00 80 1015.2
20260505011032 47 0 0.0 2.0 0.00 0.00 0.00 80 1015.2
20260505010532 47 228 0.0 1.0 0.00 0.00 0.00 80 1015.1
20260505010039 47 273 0.0 2.0 0.00 0.00 0.00 80 1015.0
20260505005531 47 0 0.0 2.0 0.00 0.00 0.00 80 1015.1
20260505005031 47 322 0.0 4.0 0.00 0.00 0.00 80 1015.1
20260505004542 47 0 0.0 4.0 0.00 0.00 0.00 80 1015.0
20260505004030 47 270 0.0 3.0 0.00 0.00 0.00 80 1015.0
20260505003532 47 269 0.0 3.0 0.00 0.00 0.00 80 1014.9
20260505003043 47 190 0.0 3.0 0.00 0.00 0.00 80 1015.0
20260505002530 47 277 1.0 3.0 0.00 0.00 0.00 80 1015.1
20260505002030 47 265 0.0 2.0 0.00 0.00 0.00 80 1015.1
20260505001542 47 285 1.0 3.0 0.00 0.00 0.00 79 1015.1
20260505001031 47 290 0.0 4.0 0.00 0.00 0.00 79 1015.1
20260505000534 47 297 1.0 5.0 0.00 0.00 0.00 79 1015.0
20260505000044 47 278 1.0 5.0 0.00 0.00 0.00 79 1015.2
20260504235530 47 282 2.0 4.0 0.00 0.00 0.00 79 1015.2
20260504235031 47 288 1.0 4.0 0.00 0.00 0.00 79 1015.1
20260504234538 47 285 1.0 3.0 0.00 0.00 0.00 79 1015.3
20260504234031 48 281 2.0 5.0 0.00 0.00 0.00 79 1015.2
20260504233530 48 281 1.0 5.0 0.00 0.00 0.00 79 1015.4
20260504233048 48 290 2.0 5.0 0.00 0.00 0.00 79 1015.3
20260504232531 48 248 2.0 4.0 0.00 0.00 0.00 79 1015.3
20260504232031 47 268 2.0 4.0 0.00 0.00 0.00 79 1015.3
20260504231535 47 256 1.0 3.0 0.00 0.00 0.00 79 1015.3
20260504231030 47 233 1.0 3.0 0.00 0.00 0.00 79 1015.4
20260504230530 47 278 0.0 4.0 0.00 0.00 0.00 79 1015.4
20260504230035 48 267 1.0 4.0 0.00 0.00 0.00 79 1015.3
20260504225532 48 271 0.0 6.0 0.00 0.00 0.00 78 1015.4
20260504225030 48 323 1.0 7.0 0.00 0.00 0.00 78 1015.5
20260504224534 48 272 3.0 7.0 0.00 0.00 0.00 78 1015.5
20260504224030 48 286 1.0 6.0 0.00 0.00 0.00 78 1015.5
20260504223531 48 281 2.0 6.0 0.00 0.00 0.00 78 1015.5
20260504223040 48 289 2.0 6.0 0.00 0.00 0.00 78 1015.5
20260504222533 48 326 2.0 6.0 0.00 0.00 0.00 78 1015.6
20260504222030 49 238 3.0 7.0 0.00 0.00 0.00 78 1015.5
20260504221548 49 253 3.0 7.0 0.00 0.00 0.00 77 1015.5
20260504221031 49 277 3.0 7.0 0.00 0.00 0.00 77 1015.3
20260504220533 49 275 2.0 7.0 0.00 0.00 0.00 77 1015.5
20260504220047 49 274 2.0 6.0 0.00 0.00 0.00 77 1015.5
20260504215530 49 289 2.0 6.0 0.00 0.00 0.00 77 1015.5
20260504215030 49 283 3.0 6.0 0.00 0.00 0.00 77 1015.6
20260504214543 49 292 3.0 6.0 0.00 0.00 0.00 77 1015.5
20260504214030 49 273 2.0 5.0 0.00 0.00 0.00 77 1015.6
20260504213530 49 266 1.0 5.0 0.00 0.00 0.00 77 1015.6
20260504213038 49 264 1.0 5.0 0.00 0.00 0.00 76 1015.5
20260504212531 49 271 1.0 5.0 0.00 0.00 0.00 76 1015.6
20260504212033 50 245 1.0 6.0 0.00 0.00 0.00 76 1015.5
20260504211538 50 269 3.0 6.0 0.00 0.00 0.00 76 1015.5
20260504211031 50 295 3.0 6.0 0.00 0.00 0.00 76 1015.6
20260504210531 50 279 3.0 6.0 0.00 0.00 0.00 75 1015.6
20260504210037 50 271 2.0 6.0 0.00 0.00 0.00 75 1015.6
20260504205532 50 290 2.0 4.0 0.00 0.00 0.00 75 1015.7
20260504205027 50 266 1.0 4.0 0.00 0.00 0.00 75 1015.7
20260504204551 50 257 2.0 5.0 0.00 0.00 0.00 75 1015.7
20260504204027 50 270 2.0 5.0 0.00 0.00 0.00 74 1015.8
20260504203528 50 299 2.0 6.0 0.00 0.00 0.00 74 1015.8
20260504203043 50 0 1.0 6.0 0.00 0.00 0.00 74 1015.8
20260504202528 51 279 2.0 6.0 0.00 0.00 0.00 74 1015.7
20260504202031 51 309 2.0 6.0 0.00 0.00 0.00 74 1015.8
20260504201542 51 339 3.0 6.0 0.00 0.00 0.00 74 1015.7
20260504201031 51 306 3.0 5.0 0.00 0.00 0.00 73 1015.6
20260504200528 51 292 2.0 8.0 0.00 0.00 0.00 73 1015.8
20260504200044 51 316 3.0 8.0 0.00 0.00 0.00 73 1015.7
20260504195531 51 322 3.0 8.0 0.00 0.00 0.00 73 1015.6
20260504195031 51 272 3.0 8.0 0.00 0.00 0.00 72 1015.6
20260504194541 51 262 2.0 7.0 0.00 0.00 0.00 72 1015.7
20260504194031 51 305 2.0 8.0 0.00 0.00 0.00 71 1015.7
20260504193531 52 297 1.0 8.0 0.00 0.00 0.00 71 1015.5
20260504193037 52 291 2.0 8.0 0.00 0.00 0.00 70 1015.5
20260504192531 52 283 4.0 10.0 0.00 0.00 0.00 69 1015.5
20260504192030 52 283 4.0 10.0 0.00 0.00 0.00 68 1015.6
20260504191543 52 297 4.0 9.0 0.00 0.00 0.00 68 1015.4
20260504191033 52 282 4.0 9.0 0.00 0.00 0.00 68 1015.4
20260504190531 52 283 2.0 7.0 0.00 0.00 0.00 69 1015.5
20260504190043 52 271 2.0 8.0 0.00 0.00 0.00 69 1015.5
20260504185531 52 285 2.0 8.0 0.00 0.00 0.00 68 1015.2
20260504185031 52 351 3.0 10.0 0.00 0.00 0.00 68 1015.3
20260504184538 52 289 4.0 12.0 0.00 0.00 0.00 68 1015.2
20260504184031 52 288 3.0 12.0 0.00 0.00 0.00 68 1015.2
20260504183531 53 242 4.0 8.0 0.00 0.00 0.00 68 1015.3
20260504183037 53 302 3.0 7.0 0.00 0.00 0.00 68 1015.2
20260504182534 53 305 4.0 10.0 0.00 0.00 0.00 68 1015.3
20260504182030 53 296 3.0 10.0 0.00 0.00 0.00 68 1015.2
20260504181542 53 297 5.0 10.0 0.00 0.00 0.00 68 1015.3